{"data":{"norad_id":61217,"epoch":"2026-05-24T16:23:42.285984Z","epoch_age_seconds":105999,"freshness":"FRESH","line1":"1 61217U 24171T   26144.68312831 -.00000146  00000+0  72193-5 0  9999","line2":"2 61217  53.1616 329.4445 0002576  80.7830 279.3462 15.30193884 94916","mean_motion":15.30193884,"eccentricity":0.0002576,"inclination_deg":53.1616,"raan_deg":329.4445,"arg_perigee_deg":80.783,"mean_anomaly_deg":279.3462,"bstar":7.2193e-6,"rev_number":9491,"period_min":94.105721834136,"perigee_km":473.46790255653,"apogee_km":476.99875895093,"semimajor_km":6853.3703307537,"source":"CELESTRAK","updated_at":"2026-05-25T13:38:19.362450Z"}}